Japanese version Home page |
Updated on December 11, 2020 |
|
Orbital ElementsEpoch 2012 Apr. 23.0 TT = JDT 2456040.5 T 2012 May 7.86157 TT Rudenko q 4.8373379 (2000.0) P Q n 0.07766282 Peri. 157.76777 +0.42580828 -0.88926700 a 5.4407729 Node 266.69286 +0.80293927 +0.45646036 e 0.1109098 Incl. 9.63007 +0.41710411 +0.02912294 P 12.7 From 219 observations 2011 Oct. 24-2020 Aug. 16, mean residual 0".4.
|
Magnitudes Graphm1 = -8.0 + 5 log d + 35 log r
|
The orbital elements are published on M.P.E.C. 2020-U182.
|